Tucson, AZ

12:59 AM MST on March 29, 2017 (GMT -0700)
Tucson International

Weather History for KTUS - November, 2014

Change the Weather History Date:

Saturday, November 15, 2014

  Actual Average Record
Temperature  
Mean Temperature 64 °F 60 °F  
Max Temperature 75 °F 74 °F 89 °F (1999)
Min Temperature 53 °F 46 °F 28 °F (1929)
Degree Days  
Heating Degree Days 1 6  
Month to date heating degree days 19 59  
Since 1 July heating degree days 19 83  
Cooling Degree Days 0 1  
Month to date cooling degree days 41 24  
Year to date cooling degree days 3615 3143  
Growing Degree Days 13 (Base 50)    
Moisture  
Dew Point 42 °F    
Average Humidity 49    
Maximum Humidity 72    
Minimum Humidity 25    
Precipitation  
Precipitation 0.00 in 0.02 in 0.53 in (1993)
Month to date precipitation 0.00 0.25  
Year to date precipitation 8.02 10.34  
Sea Level Pressure  
Sea Level Pressure 29.94 in    
Wind  
Wind Speed 5 mph (South)    
Max Wind Speed 14 mph    
Max Gust Speed 19 mph    
Visibility 10 miles    
Events      
T = Trace of Precipitation, MM = Missing Value Source: NWS Daily Summary

Daily Weather History Graph

Daily Weather History Graph

Search for Another Location

Airport or City:

Trip Planner

Search our weather history database for the weather conditions in past years. The results will help you decide how hot, cold, wet, or windy it might be!

Date:

Astronomy

Nov. 15, 2014 Rise Set
Actual Time 6:52 AM MST 5:23 PM MST
Civil Twilight 6:26 AM MST 5:49 PM MST
Nautical Twilight 5:57 AM MST 6:19 PM MST
Astronomical Twilight 5:28 AM MST 6:48 PM MST
Moon 12:31 AM MST (11/15) 1:27 PM MST (11/15)
Length of Visible Light 11h 22m
Length of Day
10h 30m
Last Quarter, 39% of the Moon is Illuminated
Nov 15
Last Quarter
Nov 22
New
Nov 29
First Quarter
Dec 6
Full
Dec 14
Last Quarter

Hourly Weather History & Observations

Time (MST) Temp. Dew Point Humidity Pressure Visibility Wind Dir Wind Speed Gust Speed Precip Events Conditions
12:53 AM 59.0 °F 48.0 °F 67% 29.92 in 10.0 mi WSW 4.6 mph - N/A   Clear
1:53 AM 59.0 °F 48.0 °F 67% 29.93 in 10.0 mi Calm Calm - N/A   Mostly Cloudy
2:53 AM 55.9 °F 46.9 °F 72% 29.94 in 10.0 mi South 4.6 mph - N/A   Partly Cloudy
3:53 AM 55.9 °F 46.9 °F 72% 29.94 in 10.0 mi South 5.8 mph - N/A   Clear
4:53 AM 54.0 °F 44.1 °F 69% 29.96 in 10.0 mi SSE 5.8 mph - N/A   Clear
5:53 AM 55.0 °F 45.0 °F 69% 29.98 in 10.0 mi SE 4.6 mph - N/A   Clear
6:53 AM 54.0 °F 45.0 °F 72% 29.99 in 10.0 mi SE 4.6 mph - N/A   Mostly Cloudy
7:53 AM 54.0 °F 45.0 °F 72% 30.01 in 10.0 mi SSE 6.9 mph - N/A   Clear
8:53 AM 59.0 °F 46.9 °F 64% 30.02 in 10.0 mi SSE 6.9 mph - N/A   Clear
9:53 AM 63.0 °F 50.0 °F 63% 30.03 in 10.0 mi Calm Calm - N/A   Clear
10:53 AM 66.9 °F 51.1 °F 57% 30.01 in 10.0 mi Calm Calm - N/A   Clear
11:53 AM 70.0 °F 48.0 °F 46% 29.98 in 10.0 mi NNW 6.9 mph - N/A   Clear
12:53 PM 71.1 °F 44.1 °F 38% 29.94 in 10.0 mi Variable 4.6 mph - N/A   Clear
1:53 PM 73.0 °F 42.1 °F 33% 29.92 in 10.0 mi NW 8.1 mph - N/A   Clear
2:53 PM 73.9 °F 39.0 °F 28% 29.89 in 10.0 mi Variable 4.6 mph - N/A   Clear
3:53 PM 75.0 °F 39.0 °F 27% 29.88 in 10.0 mi West 9.2 mph - N/A   Clear
4:53 PM 73.9 °F 35.1 °F 24% 29.89 in 10.0 mi WNW 9.2 mph - N/A   Clear
5:53 PM 71.1 °F 33.1 °F 25% 29.90 in 10.0 mi WNW 8.1 mph - N/A   Clear
6:53 PM 66.0 °F 34.0 °F 30% 29.91 in 10.0 mi WSW 4.6 mph - N/A   Clear
7:53 PM 64.9 °F 36.0 °F 34% 29.92 in 10.0 mi NNW 4.6 mph - N/A   Clear
8:53 PM 62.1 °F 35.1 °F 37% 29.92 in 10.0 mi South 3.5 mph - N/A   Clear
9:53 PM 62.1 °F 37.0 °F 39% 29.91 in 10.0 mi ESE 4.6 mph - N/A   Clear
10:53 PM 61.0 °F 39.9 °F 46% 29.89 in 10.0 mi SE 3.5 mph - N/A   Clear
11:53 PM 57.9 °F 39.9 °F 51% 29.89 in 10.0 mi SE 3.5 mph - N/A   Clear